Tracking 19909 objects as of 22-Oct-2019
HD Live streaming from Space Station
objects crossing your sky now

IRIDIUM 33 DEB

Track IRIDIUM 33 DEB now!
10-day predictions


NORAD ID: 38027
Int'l Code: 1997-051YP
Perigee: 743.9 km
Apogee: 755.3 km
Inclination: 86.3 °
Period: 99.7 minutes
Semi major axis: 7120 km
RCS: 0.0796 m2 (small)
Launch date: September 14, 1997
Source: United States (US)
Launch site: TYURATAM MISSILE AND SPACE COMPLEX (TTMTR)

Note: This is SATELLITE DEBRIS
aabbcc
Your satellite tracking list
Your tracking list is empty




NASA's NSSDC Master Catalog

Two Line Element Set (TLE):
1 38027U 97051YP  13183.87818270  .00010161  00000-0  29126-2 0  9990
2 38027 086.2920 150.8438 0007993 259.1616 110.3261 14.44867425163410
Source of the keplerian elements: AFSPC